Location: Newark
(31.5350°N, 35.0986°E)
Time: 20:45:53
(UTC+00:00)

A-11 Canister half - Pass Details

Date: 23 October 2019
Orbit: 1514 x 1686 km, 47.2° (Epoch: 13 November)

Event Time Altitude Azimuth Distance (km) Brightness Sun altitude
Exits shadow 22:32:21 11° 49° (NE) 3,786 11.3 -64.5°
Drops below altitude 10° 22:32:31 10° 50° (NE) 3,833 11.3 -64.5°
Sets 22:35:36 0° 52° (NE) 4,799 12.0 -64.1°
